Overview Statistics Trail Chart Weather Telemetry Raw packets
 

This is the latest recevied weather packets stored in our database for station/object WX0ABE-13. If no packets are shown the sender has not sent any weather packets the latest 10 day(s).

<< 32 33 34 35 36 37 38 >>
Time Temp. Humidity Pressure Rain* Wind** Luminosity Snow
1788132740 27.78° C 35% 1015.7 hPa 0 mm - 90 W/m² -
1788132435 27.78° C 34% 1015.4 hPa 0 mm - 103 W/m² -
1788132131 27.78° C 34% 1015.7 hPa 0 mm - 103 W/m² -
1788131828 28.33° C 34% 1015.5 hPa 0 mm - 98 W/m² -
1788131527 28.33° C 34% 1015.3 hPa 0 mm - 110 W/m² -
1788131222 28.33° C 34% 1015.8 hPa 0 mm - 128 W/m² -
1788130917 28.89° C 35% 1015.6 hPa 0 mm - 125 W/m² -
1788130611 28.89° C 35% 1015.6 hPa 0 mm - 133 W/m² -
1788130306 28.89° C 33% 1015.6 hPa 0 mm - 135 W/m² -
1788130005 29.44° C 32% 1015.7 hPa 0 mm - 148 W/m² -
1788129701 29.44° C 33% 1015.7 hPa 0 mm - 239 W/m² -
1788129398 29.44° C 32% 1015.8 hPa 0 mm - 267 W/m² -
1788129098 29.44° C 32% 1015.8 hPa 0 mm - 191 W/m² -
1788128792 28.89° C 33% 1015.5 hPa 0 mm - 315 W/m² -
1788128489 28.89° C 33% 1015.4 hPa 0 mm - 224 W/m² -
1788128188 29.44° C 32% 1015.6 hPa 0 mm - 196 W/m² -
1788127880 30° C 31% 1015.3 hPa 0 mm - 166 W/m² -
1788127575 30.56° C 31% 1015.3 hPa 0 mm - 173 W/m² -
1788127274 30.56° C 30% 1015.4 hPa 0 mm - 466 W/m² -
1788126973 31.67° C 29% 1015.2 hPa 0 mm - 354 W/m² -
1788126668 31.11° C 28% 1015.4 hPa 0 mm - 507 W/m² -
1788126363 31.67° C 30% 1015.2 hPa 0 mm - 431 W/m² -
1788126058 32.22° C 30% 1015 hPa 0 mm - 235 W/m² -
1788125757 32.78° C 28% 1014.9 hPa 0 mm - 537 W/m² -
1788125453 32.78° C 28% 1014.5 hPa 0 mm - 461 W/m² -

* Rain latest hour (hover to see other rain measurements)
** Current wind speed in m/s (hover to see current wind gust speed)